Terminal Aerodrome Forecast
Issued by NWS Rapid City, SD

Home | Current Version | Previous Version | Graphics & Text | Print | Product List | Glossary On
Versions: 1 2 3 4 5 6 7 8 9 10 11 12 13 14 15 16 17 18
000
FTUS43 KUNR 290700 AAA
TAFRAP
TAF AMD
KRAP 290711Z 2907/3006 34018G28KT P6SM BKN025
     FM291400 34012KT P6SM SCT030
     FM291900 VRB05KT P6SM SCT150=

USA.gov is the U.S. government's official web portal to all federal, state and local government web resources and services.